When you browse on this site, cookies collect data to enhance your experience and personalize the content and advertising you see.
Visit our Privacy Policy to learn more. By continuing to use the site, you agree to this use of cookies and data.
  • In Czech Republic
  • List of Countries
  • For 7 days
  • Water Temperature
  • Satellite Maps
  • Weather Map
  • Weather Widgets
  • user-avatar
    Login

    Hourly Weather Chimoio

    Today, 20 June, Thursday

    Time Temperature Precipitation Wind Pressure Humidity
    00:00 +14°C° 0 mm 2 mps 709 mmHg 73%
    01:00 +13°C° 0 mm 2 mps 709 mmHg 73%
    02:00 +13°C° 0 mm 2 mps 708 mmHg 72%
    03:00 +13°C° 0 mm 2 mps 708 mmHg 76%
    04:00 +12°C° 0 mm 2 mps 708 mmHg 80%
    05:00 +12°C° 0 mm 2 mps 708 mmHg 84%
    06:00 +12°C° 0 mm 3 mps 708 mmHg 77%
    07:00 +13°C° 0 mm 3 mps 709 mmHg 70%
    08:00 +16°C° 0 mm 3 mps 710 mmHg 63%
    09:00 +17°C° 0 mm 3 mps 710 mmHg 56%
    10:00 +19°C° 0 mm 4 mps 710 mmHg 50%
    11:00 +21°C° 0 mm 4 mps 710 mmHg 43%
    12:00 +22°C° 0 mm 4 mps 709 mmHg 44%
    13:00 +22°C° 0 mm 4 mps 709 mmHg 44%
    14:00 +23°C° 0 mm 4 mps 708 mmHg 44%
    15:00 +21°C° 0 mm 4 mps 708 mmHg 49%
    16:00 +20°C° 0 mm 3 mps 708 mmHg 54%
    17:00 +19°C° 0 mm 3 mps 708 mmHg 60%
    18:00 +18°C° 0 mm 3 mps 708 mmHg 63%
    19:00 +18°C° 0 mm 3 mps 708 mmHg 67%
    20:00 +17°C° 0 mm 3 mps 709 mmHg 70%
    21:00 +16°C° 0 mm 3 mps 709 mmHg 73%
    22:00 +16°C° 0 mm 3 mps 708 mmHg 77%
    23:00 +14°C° 0 mm 3 mps 708 mmHg 80%

    Tomorrow, 21 June, Friday

    Time Temperature Precipitation Wind Pressure Humidity
    00:00 +14°C° 0.1 mm 3 mps 708 mmHg 82%
    01:00 +14°C° 0.1 mm 3 mps 708 mmHg 84%
    02:00 +14°C° 0.1 mm 3 mps 707 mmHg 87%
    03:00 +14°C° 0.1 mm 3 mps 707 mmHg 89%
    04:00 +14°C° 0.1 mm 2 mps 707 mmHg 92%
    05:00 +14°C° 0.1 mm 2 mps 707 mmHg 94%
    06:00 +15°C° 0 mm 2 mps 708 mmHg 91%
    07:00 +16°C° 0 mm 3 mps 708 mmHg 88%
    08:00 +17°C° 0 mm 3 mps 709 mmHg 85%
    09:00 +18°C° 0.1 mm 3 mps 709 mmHg 79%
    10:00 +20°C° 0.1 mm 3 mps 709 mmHg 72%
    11:00 +21°C° 0.1 mm 3 mps 709 mmHg 66%
    12:00 +22°C° 0.1 mm 3 mps 709 mmHg 60%
    13:00 +24°C° 0.1 mm 3 mps 708 mmHg 54%
    14:00 +25°C° 0.1 mm 3 mps 707 mmHg 49%
    15:00 +24°C° 0 mm 3 mps 707 mmHg 54%
    16:00 +22°C° 0 mm 3 mps 707 mmHg 59%
    17:00 +21°C° 0 mm 2 mps 707 mmHg 63%
    18:00 +19°C° 0 mm 2 mps 706 mmHg 72%
    19:00 +18°C° 0 mm 1 mps 706 mmHg 80%
    20:00 +16°C° 0 mm 1 mps 706 mmHg 88%
    21:00 +16°C° 0.1 mm 1 mps 706 mmHg 90%
    22:00 +16°C° 0.1 mm 1 mps 707 mmHg 91%
    23:00 +16°C° 0.1 mm 1 mps 707 mmHg 93%

    Day after tomorrow, 22 June, Saturday

    Time Temperature Precipitation Wind Pressure Humidity
    00:00 +15°C° 0.1 mm 1 mps 706 mmHg 94%
    01:00 +15°C° 0.1 mm 1 mps 706 mmHg 95%
    02:00 +15°C° 0.1 mm 1 mps 706 mmHg 95%
    03:00 +15°C° 0 mm 1 mps 705 mmHg 95%
    04:00 +14°C° 0 mm 1 mps 705 mmHg 95%
    05:00 +14°C° 0 mm 1 mps 705 mmHg 94%
    06:00 +15°C° 0 mm 1 mps 706 mmHg 90%
    07:00 +18°C° 0 mm 1 mps 706 mmHg 85%
    08:00 +19°C° 0 mm 1 mps 707 mmHg 81%
    09:00 +21°C° 0 mm 1 mps 707 mmHg 70%
    10:00 +23°C° 0 mm 2 mps 707 mmHg 59%
    11:00 +25°C° 0 mm 2 mps 707 mmHg 48%
    12:00 +26°C° 0 mm 2 mps 706 mmHg 46%
    13:00 +26°C° 0 mm 2 mps 706 mmHg 43%
    14:00 +27°C° 0 mm 2 mps 705 mmHg 40%
    15:00 +25°C° 0 mm 2 mps 705 mmHg 47%
    16:00 +24°C° 0 mm 2 mps 704 mmHg 53%
    17:00 +21°C° 0 mm 2 mps 704 mmHg 60%
    18:00 +21°C° 0 mm 1 mps 704 mmHg 71%
    19:00 +19°C° 0 mm 1 mps 704 mmHg 83%
    20:00 +16°C° 0 mm 1 mps 704 mmHg 94%
    21:00 +16°C° 0 mm 1 mps 704 mmHg 95%
    22:00 +14°C° 0 mm 0 mps 704 mmHg 95%
    23:00 +14°C° 0 mm 0 mps 704 mmHg 96%

    23 June, Sunday

    Time Temperature Precipitation Wind Pressure Humidity
    00:00 +15°C° 0 mm 1 mps 704 mmHg 96%
    01:00 +15°C° 0 mm 1 mps 703 mmHg 96%
    02:00 +15°C° 0 mm 1 mps 703 mmHg 96%
    03:00 +14°C° 0 mm 1 mps 703 mmHg 95%
    04:00 +14°C° 0 mm 1 mps 703 mmHg 95%
    05:00 +14°C° 0 mm 1 mps 703 mmHg 95%
    06:00 +16°C° 0 mm 1 mps 703 mmHg 87%
    07:00 +18°C° 0 mm 1 mps 704 mmHg 80%
    08:00 +20°C° 0 mm 1 mps 705 mmHg 72%
    09:00 +23°C° 0 mm 1 mps 705 mmHg 59%
    10:00 +27°C° 0 mm 1 mps 705 mmHg 46%
    11:00 +28°C° 0 mm 0 mps 706 mmHg 33%
    12:00 +30°C° 0 mm 1 mps 705 mmHg 31%
    13:00 +30°C° 0 mm 1 mps 704 mmHg 30%
    14:00 +30°C° 0 mm 2 mps 703 mmHg 28%
    15:00 +28°C° 0 mm 2 mps 703 mmHg 33%
    16:00 +26°C° 0 mm 2 mps 703 mmHg 39%
    17:00 +24°C° 0 mm 2 mps 703 mmHg 44%
    18:00 +21°C° 0 mm 2 mps 703 mmHg 50%
    19:00 +20°C° 0 mm 1 mps 703 mmHg 57%
    20:00 +17°C° 0 mm 0 mps 703 mmHg 63%
    21:00 +16°C° 0 mm 0 mps 703 mmHg 67%
    22:00 +15°C° 0 mm 0 mps 703 mmHg 71%
    23:00 +15°C° 0 mm 0 mps 703 mmHg 75%

    24 June, Monday

    Time Temperature Precipitation Wind Pressure Humidity
    00:00 +14°C° 0 mm 0 mps 703 mmHg 77%
    01:00 +14°C° 0 mm 0 mps 703 mmHg 80%
    02:00 +15°C° 0 mm 1 mps 703 mmHg 82%
    03:00 +15°C° 0 mm 1 mps 703 mmHg 82%
    04:00 +15°C° 0 mm 1 mps 703 mmHg 81%
    05:00 +14°C° 0 mm 1 mps 703 mmHg 81%
    06:00 +16°C° 0 mm 1 mps 704 mmHg 73%
    07:00 +19°C° 0 mm 1 mps 705 mmHg 65%
    08:00 +21°C° 0 mm 1 mps 706 mmHg 57%
    09:00 +23°C° 0 mm 1 mps 706 mmHg 50%
    10:00 +25°C° 0 mm 2 mps 707 mmHg 42%
    11:00 +27°C° 0 mm 2 mps 707 mmHg 35%
    12:00 +27°C° 0 mm 2 mps 706 mmHg 35%
    13:00 +27°C° 0 mm 3 mps 706 mmHg 34%
    14:00 +27°C° 0 mm 3 mps 705 mmHg 33%
    15:00 +26°C° 0 mm 3 mps 705 mmHg 37%
    16:00 +24°C° 0 mm 2 mps 705 mmHg 42%
    17:00 +23°C° 0 mm 2 mps 705 mmHg 46%
    18:00 +20°C° 0 mm 2 mps 705 mmHg 56%
    19:00 +19°C° 0 mm 2 mps 706 mmHg 67%
    20:00 +17°C° 0 mm 2 mps 706 mmHg 77%
    21:00 +16°C° 0 mm 1 mps 706 mmHg 84%
    22:00 +16°C° 0 mm 1 mps 706 mmHg 90%
    23:00 +15°C° 0 mm 1 mps 706 mmHg 97%

    25 June, Tuesday

    Time Temperature Precipitation Wind Pressure Humidity
    00:00 +15°C° 0.1 mm 1 mps 706 mmHg 96%
    01:00 +16°C° 0.1 mm 1 mps 706 mmHg 95%
    02:00 +16°C° 0.1 mm 1 mps 706 mmHg 94%
    03:00 +16°C° 0.2 mm 1 mps 706 mmHg 95%
    04:00 +15°C° 0.2 mm 1 mps 706 mmHg 96%
    05:00 +15°C° 0.2 mm 1 mps 706 mmHg 96%
    06:00 +16°C° 0.3 mm 1 mps 707 mmHg 94%
    07:00 +16°C° 0.3 mm 1 mps 707 mmHg 91%
    08:00 +17°C° 0.3 mm 2 mps 708 mmHg 88%
    09:00 +18°C° 0.3 mm 2 mps 708 mmHg 81%
    10:00 +20°C° 0.3 mm 2 mps 708 mmHg 73%
    11:00 +21°C° 0.3 mm 3 mps 708 mmHg 66%
    12:00 +22°C° 0.1 mm 3 mps 708 mmHg 60%
    13:00 +22°C° 0.1 mm 3 mps 707 mmHg 54%
    14:00 +24°C° 0.1 mm 3 mps 707 mmHg 48%
    15:00 +23°C° 0 mm 2 mps 707 mmHg 50%
    16:00 +21°C° 0 mm 2 mps 707 mmHg 51%
    17:00 +21°C° 0 mm 1 mps 707 mmHg 53%
    18:00 +19°C° 0 mm 1 mps 707 mmHg 58%
    19:00 +18°C° 0 mm 1 mps 707 mmHg 63%
    20:00 +15°C° 0 mm 1 mps 707 mmHg 67%
    21:00 +14°C° 0 mm 1 mps 707 mmHg 71%
    22:00 +14°C° 0 mm 1 mps 707 mmHg 74%
    23:00 +12°C° 0 mm 0 mps 707 mmHg 78%
    Show more